Time,TemperatureF,DewpointF,PressureIn,WindDirection,WindDirectionDegrees,WindSpeedMPH,WindSpeedGustMPH,Humidity,HourlyPrecipIn,Conditions,Clouds,dailyrainin,SoftwareType,DateUTC
2013-03-24 00:00:00,52.0,45.0,29.58,West,260,17.0,-999.0,76,-99.99,,,-99.99,,2013-03-24 04:00:00,
2013-03-24 00:22:00,52.0,45.0,29.58,West,260,17.0,-999.0,76,-99.99,,,-99.99,,2013-03-24 04:22:00,
2013-03-24 00:32:00,52.0,45.0,29.58,West,260,17.0,-999.0,76,-99.99,,,-99.99,,2013-03-24 04:32:00,
2013-03-24 00:42:00,52.0,45.0,29.58,West,260,17.0,-999.0,76,-99.99,,,-99.99,,2013-03-24 04:42:00,
2013-03-24 00:52:00,52.0,45.0,29.58,West,260,17.0,-999.0,76,-99.99,,,-99.99,,2013-03-24 04:52:00,
2013-03-24 01:00:00,52.0,43.0,29.59,West,260,15.0,-999.0,71,-99.99,,,-99.99,,2013-03-24 05:00:00,
2013-03-24 01:21:00,52.0,43.0,29.59,West,260,15.0,-999.0,71,-99.99,,,-99.99,,2013-03-24 05:21:00,
2013-03-24 01:32:00,52.0,43.0,29.59,West,260,15.0,-999.0,71,-99.99,,,-99.99,,2013-03-24 05:32:00,
2013-03-24 01:41:00,52.0,43.0,29.59,West,260,15.0,-999.0,71,-99.99,,,-99.99,,2013-03-24 05:41:00,
2013-03-24 01:51:00,52.0,43.0,29.59,West,260,15.0,-999.0,71,-99.99,,,-99.99,,2013-03-24 05:51:00,
2013-03-24 02:00:00,52.0,45.0,29.59,West,270,11.0,-999.0,76,-99.99,,,-99.99,,2013-03-24 06:00:00,
2013-03-24 02:21:00,52.0,45.0,29.59,West,270,11.0,-999.0,76,-99.99,,,-99.99,,2013-03-24 06:21:00,
2013-03-24 02:32:00,52.0,45.0,29.59,West,270,11.0,-999.0,76,-99.99,,,-99.99,,2013-03-24 06:32:00,
2013-03-24 02:41:00,52.0,45.0,29.59,West,270,11.0,-999.0,76,-99.99,,,-99.99,,2013-03-24 06:41:00,
2013-03-24 02:51:00,52.0,45.0,29.59,West,270,11.0,-999.0,76,-99.99,,,-99.99,,2013-03-24 06:51:00,
2013-03-24 03:00:00,53.0,46.0,29.60,WNW,290,6.0,-999.0,79,-99.99,,,-99.99,,2013-03-24 07:00:00,
2013-03-24 03:21:00,53.0,46.0,29.60,WNW,290,6.0,-999.0,79,-99.99,,,-99.99,,2013-03-24 07:21:00,
2013-03-24 03:32:00,53.0,46.0,29.60,WNW,290,6.0,-999.0,79,-99.99,,,-99.99,,2013-03-24 07:32:00,
2013-03-24 03:41:00,53.0,46.0,29.60,WNW,290,6.0,-999.0,79,-99.99,,,-99.99,,2013-03-24 07:41:00,
2013-03-24 03:51:00,53.0,46.0,29.60,WNW,290,6.0,-999.0,79,-99.99,,,-99.99,,2013-03-24 07:51:00,
2013-03-24 04:00:00,53.0,46.0,29.59,South,180,5.0,-999.0,79,-99.99,,,-99.99,,2013-03-24 08:00:00,
2013-03-24 04:21:00,53.0,46.0,29.59,South,180,5.0,-999.0,79,-99.99,,,-99.99,,2013-03-24 08:21:00,
2013-03-24 04:31:00,53.0,46.0,29.59,South,180,5.0,-999.0,79,-99.99,,,-99.99,,2013-03-24 08:31:00,
2013-03-24 04:41:00,53.0,46.0,29.59,South,180,5.0,-999.0,79,-99.99,,,-99.99,,2013-03-24 08:41:00,
2013-03-24 04:51:00,53.0,46.0,29.59,South,180,5.0,-999.0,79,-99.99,,,-99.99,,2013-03-24 08:51:00,
2013-03-24 05:00:00,54.0,46.0,29.59,NE,40,5.0,-999.0,74,-99.99,,,-99.99,,2013-03-24 09:00:00,
2013-03-24 05:21:00,54.0,46.0,29.59,NE,40,5.0,-999.0,74,-99.99,,,-99.99,,2013-03-24 09:21:00,
2013-03-24 05:32:00,54.0,46.0,29.59,NE,40,5.0,-999.0,74,-99.99,,,-99.99,,2013-03-24 09:32:00,
2013-03-24 05:42:00,54.0,46.0,29.59,NE,40,5.0,-999.0,74,-99.99,,,-99.99,,2013-03-24 09:42:00,
2013-03-24 05:52:00,54.0,46.0,29.59,NE,40,5.0,-999.0,74,-99.99,,,-99.99,,2013-03-24 09:52:00,
2013-03-24 06:00:00,55.0,48.0,29.56,ESE,120,7.0,-999.0,76,-99.99,,,-99.99,,2013-03-24 10:00:00,
2013-03-24 06:22:00,55.0,48.0,29.56,ESE,120,7.0,-999.0,76,-99.99,,,-99.99,,2013-03-24 10:22:00,
2013-03-24 06:32:00,55.0,48.0,29.56,ESE,120,7.0,-999.0,76,-99.99,,,-99.99,,2013-03-24 10:32:00,
2013-03-24 06:41:00,55.0,48.0,29.56,ESE,120,7.0,-999.0,76,-99.99,,,-99.99,,2013-03-24 10:41:00,
2013-03-24 06:52:00,55.0,48.0,29.56,ESE,120,7.0,-999.0,76,-99.99,,,-99.99,,2013-03-24 10:52:00,
2013-03-24 08:00:00,57.0,43.0,29.52,SSE,160,14.0,-999.0,58,-99.99,,,-99.99,,2013-03-24 12:00:00,
2013-03-24 08:21:00,57.0,43.0,29.52,SSE,160,14.0,-999.0,58,-99.99,,,-99.99,,2013-03-24 12:21:00,
2013-03-24 08:32:00,57.0,43.0,29.52,SSE,160,14.0,-999.0,58,-99.99,,,-99.99,,2013-03-24 12:32:00,
2013-03-24 08:41:00,57.0,43.0,29.52,SSE,160,14.0,-999.0,58,-99.99,,,-99.99,,2013-03-24 12:41:00,
2013-03-24 08:51:00,57.0,43.0,29.52,SSE,160,14.0,-999.0,58,-99.99,,,-99.99,,2013-03-24 12:51:00,
2013-03-24 09:00:00,57.0,48.0,29.50,SE,140,14.0,-999.0,71,-99.99,,,-99.99,,2013-03-24 13:00:00,
2013-03-24 09:21:00,57.0,48.0,29.50,SE,140,14.0,-999.0,71,-99.99,,,-99.99,,2013-03-24 13:21:00,
2013-03-24 09:51:00,57.0,48.0,29.50,SE,140,14.0,-999.0,71,-99.99,,,-99.99,,2013-03-24 13:51:00,
2013-03-24 11:00:00,59.0,43.0,29.39,SSE,160,26.0,-999.0,54,-99.99,,,-99.99,,2013-03-24 15:00:00,
2013-03-24 11:21:00,59.0,43.0,29.39,SSE,160,26.0,-999.0,54,-99.99,,,-99.99,,2013-03-24 15:21:00,
2013-03-24 11:32:00,59.0,43.0,29.39,SSE,160,26.0,-999.0,54,-99.99,,,-99.99,,2013-03-24 15:32:00,
2013-03-24 11:42:00,59.0,43.0,29.39,SSE,160,26.0,-999.0,54,-99.99,,,-99.99,,2013-03-24 15:42:00,
2013-03-24 11:52:00,59.0,43.0,29.39,SSE,160,26.0,-999.0,54,-99.99,,,-99.99,,2013-03-24 15:52:00,
2013-03-24 12:00:00,55.0,46.0,29.36,SSE,150,31.0,-999.0,71,-99.99,,,-99.99,,2013-03-24 16:00:00,
2013-03-24 12:22:00,55.0,46.0,29.36,SSE,150,31.0,-999.0,71,-99.99,,,-99.99,,2013-03-24 16:22:00,
2013-03-24 12:32:00,55.0,46.0,29.36,SSE,150,31.0,-999.0,71,-99.99,,,-99.99,,2013-03-24 16:32:00,
2013-03-24 12:42:00,55.0,46.0,29.36,SSE,150,31.0,-999.0,71,-99.99,,,-99.99,,2013-03-24 16:42:00,
2013-03-24 12:52:00,55.0,46.0,29.36,SSE,150,31.0,-999.0,71,-99.99,,,-99.99,,2013-03-24 16:52:00,
2013-03-24 13:00:00,56.0,46.0,29.29,SW,230,29.0,-999.0,69,-99.99,,,-99.99,,2013-03-24 17:00:00,
2013-03-24 13:22:00,56.0,46.0,29.29,SW,230,29.0,-999.0,69,-99.99,,,-99.99,,2013-03-24 17:22:00,
2013-03-24 13:31:00,56.0,46.0,29.29,SW,230,29.0,-999.0,69,-99.99,,,-99.99,,2013-03-24 17:31:00,
2013-03-24 13:41:00,56.0,46.0,29.29,SW,230,29.0,-999.0,69,-99.99,,,-99.99,,2013-03-24 17:41:00,
2013-03-24 13:52:00,56.0,46.0,29.29,SW,230,29.0,-999.0,69,-99.99,,,-99.99,,2013-03-24 17:52:00,
2013-03-24 14:00:00,55.0,46.0,29.30,SW,230,28.0,-999.0,71,-99.99,,,-99.99,,2013-03-24 18:00:00,
2013-03-24 14:11:00,55.0,46.0,29.30,SW,230,28.0,-999.0,71,-99.99,,,-99.99,,2013-03-24 18:11:00,
2013-03-24 14:21:00,55.0,46.0,29.30,SW,230,28.0,-999.0,71,-99.99,,,-99.99,,2013-03-24 18:21:00,
2013-03-24 14:31:00,55.0,46.0,29.30,SW,230,28.0,-999.0,71,-99.99,,,-99.99,,2013-03-24 18:31:00,
2013-03-24 14:42:00,55.0,46.0,29.30,SW,230,28.0,-999.0,71,-99.99,,,-99.99,,2013-03-24 18:42:00,
2013-03-24 14:51:00,55.0,46.0,29.30,SW,230,28.0,-999.0,71,-99.99,,,-99.99,,2013-03-24 18:51:00,
2013-03-24 17:00:00,52.0,41.0,29.33,WSW,240,22.0,-999.0,66,-99.99,,,-99.99,,2013-03-24 21:00:00,
2013-03-24 17:21:00,52.0,41.0,29.33,WSW,240,22.0,-999.0,66,-99.99,,,-99.99,,2013-03-24 21:21:00,
2013-03-24 17:32:00,52.0,41.0,29.33,WSW,240,22.0,-999.0,66,-99.99,,,-99.99,,2013-03-24 21:32:00,
2013-03-24 17:42:00,52.0,41.0,29.33,WSW,240,22.0,-999.0,66,-99.99,,,-99.99,,2013-03-24 21:42:00,
2013-03-24 17:52:00,52.0,41.0,29.33,WSW,240,22.0,-999.0,66,-99.99,,,-99.99,,2013-03-24 21:52:00,
2013-03-24 18:00:00,48.0,41.0,29.34,WSW,250,26.0,-999.0,76,-99.99,,,-99.99,,2013-03-24 22:00:00,
2013-03-24 18:22:00,48.0,41.0,29.34,WSW,250,26.0,-999.0,76,-99.99,,,-99.99,,2013-03-24 22:22:00,
2013-03-24 18:32:00,48.0,41.0,29.34,WSW,250,26.0,-999.0,76,-99.99,,,-99.99,,2013-03-24 22:32:00,
2013-03-24 18:42:00,48.0,41.0,29.34,WSW,250,26.0,-999.0,76,-99.99,,,-99.99,,2013-03-24 22:42:00,
2013-03-24 18:52:00,48.0,41.0,29.34,WSW,250,26.0,-999.0,76,-99.99,,,-99.99,,2013-03-24 22:52:00,
2013-03-24 19:00:00,46.0,39.0,29.32,West,260,21.0,-999.0,75,-99.99,,,-99.99,,2013-03-24 23:00:00,
2013-03-24 19:41:00,46.0,39.0,29.32,West,260,21.0,-999.0,75,-99.99,,,-99.99,,2013-03-24 23:41:00,
2013-03-24 19:52:00,46.0,39.0,29.32,West,260,21.0,-999.0,75,-99.99,,,-99.99,,2013-03-24 23:52:00,
2013-03-24 20:00:00,46.0,39.0,29.34,SW,230,28.0,-999.0,75,-99.99,,,-99.99,,2013-03-25 00:00:00,
2013-03-24 20:22:00,46.0,39.0,29.34,SW,230,28.0,-999.0,75,-99.99,,,-99.99,,2013-03-25 00:22:00,
2013-03-24 20:31:00,46.0,39.0,29.34,SW,230,28.0,-999.0,75,-99.99,,,-99.99,,2013-03-25 00:31:00,
2013-03-24 20:42:00,46.0,39.0,29.34,SW,230,28.0,-999.0,75,-99.99,,,-99.99,,2013-03-25 00:42:00,
2013-03-24 20:52:00,46.0,39.0,29.34,SW,230,28.0,-999.0,75,-99.99,,,-99.99,,2013-03-25 00:52:00,
2013-03-24 21:00:00,45.0,32.0,29.29,West,260,25.0,-999.0,61,-99.99,,,-99.99,,2013-03-25 01:00:00,
2013-03-24 21:21:00,45.0,32.0,29.29,West,260,25.0,-999.0,61,-99.99,,,-99.99,,2013-03-25 01:21:00,
2013-03-24 21:31:00,45.0,32.0,29.29,West,260,25.0,-999.0,61,-99.99,,,-99.99,,2013-03-25 01:31:00,
2013-03-24 21:41:00,45.0,32.0,29.29,West,260,25.0,-999.0,61,-99.99,,,-99.99,,2013-03-25 01:41:00,
2013-03-24 21:52:00,45.0,32.0,29.29,West,260,25.0,-999.0,61,-99.99,,,-99.99,,2013-03-25 01:52:00,
2013-03-24 22:00:00,41.0,32.0,29.32,WNW,290,37.0,-999.0,70,-99.99,,,-99.99,,2013-03-25 02:00:00,
2013-03-24 22:21:00,41.0,32.0,29.32,WNW,290,37.0,-999.0,70,-99.99,,,-99.99,,2013-03-25 02:21:00,
2013-03-24 22:31:00,41.0,32.0,29.32,WNW,290,37.0,-999.0,70,-99.99,,,-99.99,,2013-03-25 02:31:00,
2013-03-24 22:42:00,41.0,32.0,29.32,WNW,290,37.0,-999.0,70,-99.99,,,-99.99,,2013-03-25 02:42:00,
2013-03-24 22:51:00,41.0,32.0,29.32,WNW,290,37.0,-999.0,70,-99.99,,,-99.99,,2013-03-25 02:51:00,
2013-03-24 23:00:00,40.0,34.0,29.35,NW,310,29.0,-999.0,78,-99.99,,,-99.99,,2013-03-25 03:00:00,
2013-03-24 23:21:00,40.0,34.0,29.35,NW,310,29.0,-999.0,78,-99.99,,,-99.99,,2013-03-25 03:21:00,
2013-03-24 23:32:00,40.0,34.0,29.35,NW,310,29.0,-999.0,78,-99.99,,,-99.99,,2013-03-25 03:32:00,
2013-03-24 23:42:00,40.0,34.0,29.35,NW,310,29.0,-999.0,78,-99.99,,,-99.99,,2013-03-25 03:42:00,
2013-03-24 23:52:00,40.0,34.0,29.35,NW,310,29.0,-999.0,78,-99.99,,,-99.99,,2013-03-25 03:52:00,